Wind_Speed
23 31 29 28 32 38 32 43 46 46 43 42 45 46 46 45 44 40 38 35 34 33 31 31 29 27 24 22 20 19 19 17 15 17 16 16 16 13 14 12 11 11 15
28 28 33 34 36 38 38 42 46 47 47 45 43 42 41 42 42 41 38 36 36 37 35 34 33 30 28 26 24 22 20 20 19 21 20 18 14 17 16 17 18 17 16
37 29 32 36 26 38 39 41 46 47 48 47 43 44 43 46 47 44 43 40 35 37 37 36 36 33 30 30 26 24 23 23 22 23 23 20 17 16 19 21 21 18 16
42 41 36 43 34 30 39 44 43 49 50 50 46 47 47 47 46 42 41 40 37 35 40 39 39 38 34 34 31 27 26 25 26 25 26 23 22 23 21 14 15 17 17
35 36 46 50 45 41 28 36 42 49 54 56 47 47 48 47 42 43 42 43 42 36 40 42 42 42 39 37 35 32 30 29 27 28 27 27 25 28 24 20 18 21 20
35 29 44 32 52 46 33 30 47 50 56 59 49 48 48 47 44 46 45 43 42 38 40 44 44 44 43 39 37 35 33 31 30 30 30 29 28 28 30 28 26 25 23
25 32 26 31 38 45 46 25 40 51 55 59 51 49 48 47 46 48 47 43 41 39 42 44 44 44 44 40 39 38 36 35 34 33 33 32 29 29 30 32 32 30 27
22 28 34 36 33 33 48 37 34 47 46 50 53 50 47 50 48 48 48 43 41 38 40 43 40 39 41 41 38 40 39 38 38 36 36 35 33 31 32 34 35 35 32
30 28 23 39 33 31 46 44 30 48 45 45 49 51 47 53 55 50 49 44 42 42 40 43 40 37 37 39 39 39 40 40 39 38 37 38 37 36 35 36 39 37 37
30 28 34 28 36 35 37 52 39 39 53 41 44 49 48 50 55 51 50 47 45 43 45 43 42 39 38 38 39 39 39 41 40 39 39 39 39 38 38 38 39 41 40
23 33 34 33 32 38 34 42 39 39 38 42 42 45 49 47 53 54 50 48 47 45 47 44 43 40 38 37 37 38 39 40 39 39 38 38 39 39 41 41 40 42 42
24 22 29 39 34 34 36 36 37 30 40 43 43 44 46 45 50 54 51 49 47 44 44 44 44 41 40 37 37 36 36 35 36 36 36 35 36 38 38 41 41 40 40
24 25 17 26 33 38 46 39 35 34 40 38 42 45 48 46 46 51 51 49 48 45 42 41 42 41 38 36 35 35 35 35 36 36 36 36 36 35 36 35 35 37 37
27 21 18 7 19 37 45 44 37 35 38 48 44 45 50 50 48 48 51 52 52 49 46 45 44 43 43 43 42 41 40 39 39 39 39 38 37 35 34 34 34 34 37
23 25 21 20 12 28 43 50 41 41 44 43 50 50 51 52 51 49 51 51 53 53 50 49 48 46 46 48 46 45 44 44 43 42 41 40 40 39 38 39 39 38 40
19 20 24 23 22 15 33 37 51 42 40 46 52 53 51 50 52 47 46 49 51 53 53 52 51 51 51 50 48 48 49 48 48 48 46 46 45 45 46 46 46 47 49
19 20 21 25 30 14 12 20 39 53 50 42 40 53 52 50 50 56 51 53 52 52 54 54 54 52 51 51 50 49 49 49 52 52 52 53 52 50 51 51 52 53 55
20 23 24 28 25 22 4 8 16 29 42 51 49 47 55 53 46 56 56 55 53 67 59 51 51 55 55 54 52 48 47 48 49 48 49 54 54 53 53 54 55 56 58
19 22 27 28 28 33 29 8 6 12 23 30 38 39 50 55 57 49 54 57 60 54 63 72 66 61 58 59 57 52 52 51 52 51 50 49 52 54 55 51 48 50 52
18 20 21 21 30 31 28 30 28 11 9 26 25 29 34 43 54 61 60 59 56 51 64 71 72 71 61 64 61 55 54 53 54 53 50 52 52 50 50 48 50 49 47
20 20 21 23 24 27 28 27 28 31 12 3 29 17 29 29 38 48 57 62 60 62 62 57 66 69 67 66 62 57 56 57 56 53 53 52 54 55 51 49 52 51 47
20 21 22 23 25 24 24 24 24 26 29 26 11 18 18 16 24 32 41 45 49 54 59 68 63 57 61 64 66 61 58 57 55 56 57 54 53 54 52 52 53 52 50
22 24 23 23 24 25 24 23 22 20 23 23 29 17 4 17 29 31 34 37 41 44 48 53 57 59 59 60 65 62 59 56 56 57 56 56 54 52 53 54 55 53 50
23 23 24 25 25 25 24 24 24 22 19 22 21 25 28 8 5 14 31 36 40 40 42 47 52 56 58 59 60 61 59 57 56 58 59 57 55 53 53 55 58 57 51
22 24 24 24 25 25 25 24 24 24 24 22 20 19 22 26 16 6 10 20 33 37 44 45 49 52 54 56 58 59 58 58 59 61 62 62 61 59 59 60 62 59 57
23 24 23 23 24 24 25 25 26 26 25 24 22 19 17 16 21 21 15 12 13 20 40 45 48 48 54 58 60 60 60 60 59 60 63 64 64 64 63 63 62 61 60
Wind_Direction
246 237 240 241 234 218 229 241 248 252 237 225 223 228 229 232 232 234 235 229 228 229 224 226 227 227 229 233 236 237 235 237 233 233 235 258 247 260 262 271 275 274 272
232 237 236 235 225 220 221 242 246 252 246 232 227 230 235 237 239 239 238 236 228 229 227 226 229 228 230 230 231 237 238 240 236 247 244 247 246 250 260 263 267 271 274
239 227 232 223 243 229 224 236 244 249 253 241 232 227 230 232 236 237 239 240 232 231 231 228 231 230 229 234 233 235 238 239 242 245 257 259 263 262 261 264 266 270 274
240 230 223 220 219 217 235 221 242 245 249 249 236 230 229 232 234 234 239 243 237 228 230 228 231 234 229 233 236 232 236 239 243 244 252 261 261 269 269 263 273 273 272
266 263 233 218 219 214 213 233 234 241 245 248 242 234 232 232 236 238 237 239 238 229 229 229 229 234 233 230 236 237 232 239 242 248 250 258 262 268 276 280 275 279 276
250 256 257 259 232 217 215 218 230 235 243 247 245 241 233 231 232 236 236 236 238 233 228 232 231 232 238 234 236 239 239 238 243 249 251 253 259 271 277 280 282 280 279
237 236 221 226 235 237 215 221 239 235 241 247 242 241 236 232 230 237 237 235 236 234 232 234 237 234 238 240 238 240 241 240 241 245 253 257 256 262 271 272 276 280 283
248 238 231 226 220 221 221 218 236 236 242 247 241 235 234 228 229 233 237 235 235 235 236 238 240 239 238 243 242 243 244 244 242 243 248 256 260 259 263 269 275 279 280
265 254 242 228 235 218 211 221 227 232 238 248 241 233 230 225 227 229 235 235 234 231 233 236 238 239 239 239 242 243 246 248 248 247 247 252 257 261 262 266 272 275 279
268 255 253 238 231 228 213 213 224 240 221 239 243 235 230 227 223 225 231 234 235 233 230 235 235 237 238 238 239 242 243 245 246 247 249 251 254 259 263 265 270 275 277
302 259 250 246 242 233 228 213 219 230 246 240 240 238 229 227 224 224 226 232 235 237 234 232 235 234 236 236 237 240 241 242 244 246 247 250 254 254 259 263 265 270 275
324 303 260 248 244 247 244 218 218 220 233 241 243 241 232 228 224 224 224 229 234 235 234 232 232 232 233 235 237 237 240 242 244 245 248 248 249 253 254 257 264 269 274
324 326 264 236 233 236 234 222 219 213 214 220 244 249 244 232 229 226 224 226 229 230 229 228 224 224 226 231 235 240 241 244 245 248 249 250 251 251 254 259 261 266 271
338 314 310 244 220 231 232 218 214 213 211 212 218 235 242 233 224 225 225 225 228 228 228 227 227 229 233 235 236 238 242 243 245 247 247 247 248 248 253 258 263 264 267
350 353 336 324 193 230 233 223 222 212 211 212 213 219 223 231 225 224 225 225 225 227 227 230 232 233 238 239 238 239 241 242 244 245 246 245 247 250 254 259 263 266 268
343 348 357 358 6 242 244 228 224 225 214 213 216 218 220 226 226 230 231 229 222 226 227 231 234 240 242 241 241 242 243 243 243 245 247 249 252 254 256 259 262 264 267
7 9 359 7 358 15 270 258 229 235 232 222 219 220 220 225 222 220 226 227 226 225 231 234 238 242 241 243 243 244 246 247 248 246 248 251 253 256 259 260 261 264 266
360 3 359 1 354 5 20 187 237 238 240 237 233 228 221 224 224 223 224 223 230 226 231 236 241 243 246 243 243 245 252 252 252 253 253 254 254 256 257 259 260 262 264
359 1 358 354 358 4 1 3 126 199 229 235 237 237 234 231 226 221 227 227 225 227 227 233 244 247 246 247 243 245 248 252 254 254 256 260 256 257 257 261 262 262 265
355 353 347 342 345 355 360 358 351 6 192 214 219 234 238 228 228 226 226 229 230 231 226 225 229 238 239 247 248 246 248 252 253 255 256 257 257 255 257 261 266 266 268
343 348 346 341 345 343 351 357 355 352 343 302 215 210 235 238 233 229 231 231 233 236 241 240 232 235 240 243 247 249 250 252 255 258 259 258 257 259 261 264 268 271 270
331 339 340 338 339 340 340 347 352 351 350 344 329 194 210 214 231 237 233 233 233 235 235 234 242 243 243 244 247 250 252 253 254 257 259 258 257 258 260 262 266 269 271
329 329 333 334 332 335 337 338 342 347 342 342 340 345 286 214 234 241 241 237 236 235 237 239 239 241 242 245 247 250 252 251 251 252 254 254 255 255 256 259 262 265 266
321 324 326 328 330 330 334 336 337 339 336 337 340 336 341 323 226 230 235 242 242 239 239 239 240 240 241 243 245 247 247 244 244 248 249 250 252 254 256 258 260 261 264
317 320 324 326 327 328 330 331 331 333 335 336 333 340 333 332 331 297 254 237 242 244 246 242 241 239 239 240 242 243 244 244 245 247 250 251 253 255 257 259 261 262 261
314 318 321 324 325 327 328 328 329 329 331 332 331 333 332 326 323 321 310 279 245 238 249 249 244 242 242 242 244 244 245 245 247 249 252 254 255 256 257 258 259 262 263
Height
3097 3102 3107 3109 3113 3118 3120 3118 3120 3122 3127 3132 3137 3141 3146 3150 3155 3161 3166 3172 3176 3179 3183 3186 3189 3192 3195 3198 3202 3203 3204 3206 3210 3208 3211 3211 3211 3211 3210 3211 3212 3213 3212
3085 3091 3097 3101 3104 3108 3114 3112 3112 3115 3118 3124 3132 3136 3141 3146 3150 3154 3159 3164 3170 3173 3177 3181 3183 3188 3190 3193 3197 3199 3202 3203 3206 3206 3207 3208 3210 3209 3209 3209 3210 3210 3211
3078 3079 3086 3091 3096 3101 3105 3106 3104 3107 3110 3116 3124 3129 3133 3137 3140 3146 3150 3154 3163 3168 3172 3176 3178 3182 3186 3188 3192 3195 3198 3200 3202 3203 3204 3204 3206 3207 3207 3207 3207 3208 3209
3068 3070 3071 3075 3082 3088 3096 3100 3096 3098 3103 3107 3113 3118 3123 3127 3132 3139 3145 3149 3154 3160 3164 3169 3171 3175 3179 3182 3186 3190 3193 3195 3196 3199 3198 3200 3202 3202 3203 3204 3204 3205 3205
3058 3059 3065 3065 3069 3077 3080 3092 3092 3090 3093 3098 3104 3109 3114 3121 3129 3132 3138 3142 3145 3152 3156 3160 3165 3166 3171 3175 3179 3183 3186 3189 3192 3193 3195 3196 3197 3197 3198 3200 3201 3201 3201
3041 3048 3055 3060 3063 3067 3072 3076 3085 3084 3085 3090 3097 3100 3106 3113 3120 3122 3128 3134 3138 3144 3149 3152 3156 3160 3163 3168 3172 3176 3180 3183 3185 3188 3189 3190 3192 3192 3191 3193 3195 3196 3197
3032 3036 3039 3043 3051 3058 3064 3069 3076 3078 3079 3082 3088 3092 3097 3105 3112 3115 3120 3126 3131 3136 3141 3144 3148 3153 3156 3160 3166 3169 3172 3176 3178 3180 3182 3184 3186 3188 3188 3187 3188 3190 3191
3028 3029 3030 3033 3037 3040 3053 3060 3063 3067 3069 3070 3075 3083 3088 3095 3102 3106 3111 3117 3123 3129 3134 3137 3140 3146 3150 3153 3158 3161 3164 3168 3171 3173 3175 3177 3179 3182 3183 3183 3182 3182 3184
3020 3024 3025 3027 3028 3029 3034 3039 3051 3047 3058 3059 3064 3071 3077 3083 3090 3097 3102 3109 3115 3121 3125 3128 3133 3138 3142 3146 3149 3153 3156 3160 3164 3167 3169 3170 3172 3174 3176 3177 3174 3177 3177
3015 3017 3019 3019 3020 3022 3023 3029 3036 3036 3026 3051 3054 3060 3068 3074 3081 3087 3092 3099 3106 3112 3117 3120 3124 3129 3133 3137 3141 3144 3148 3150 3154 3158 3161 3163 3166 3167 3168 3169 3169 3168 3170
3010 3009 3012 3015 3015 3016 3016 3019 3025 3032 3027 3038 3048 3050 3058 3065 3071 3076 3083 3089 3097 3103 3106 3113 3116 3121 3125 3128 3132 3136 3139 3142 3145 3148 3152 3155 3157 3160 3161 3161 3162 3161 3162
3007 3004 3003 3006 3010 3011 3009 3010 3013 3017 3031 3034 3039 3044 3048 3054 3060 3066 3073 3080 3087 3093 3098 3104 3108 3113 3117 3120 3123 3127 3131 3134 3137 3140 3143 3146 3149 3151 3153 3154 3154 3154 3155
3001 2999 2996 2996 2999 3000 2996 2994 3002 3007 3013 3025 3030 3035 3039 3045 3051 3057 3063 3070 3077 3083 3089 3094 3098 3104 3109 3112 3116 3120 3123 3127 3130 3133 3135 3139 3141 3143 3144 3146 3147 3147 3147
3000 2996 2992 2989 2988 2989 2991 2993 2995 3000 3005 3011 3013 3023 3028 3033 3041 3048 3053 3058 3066 3072 3079 3085 3090 3096 3101 3105 3109 3112 3115 3118 3121 3124 3127 3130 3132 3135 3137 3138 3139 3140 3139
3000 2994 2988 2985 2977 2982 2983 2989 2989 2991 2995 3000 3004 3006 3010 3019 3028 3034 3040 3047 3053 3061 3068 3074 3080 3085 3089 3093 3099 3103 3107 3110 3112 3115 3118 3121 3124 3128 3129 3129 3131 3131 3130
2999 2994 2987 2977 2975 2973 2975 2979 2982 2984 2987 2992 2995 2999 3003 3009 3018 3025 3029 3036 3039 3048 3056 3062 3068 3073 3078 3082 3088 3093 3096 3100 3102 3105 3109 3112 3115 3118 3120 3120 3122 3122 3120
2998 2992 2988 2982 2978 2970 2969 2971 2974 2975 2978 2982 2986 2991 2996 2999 3004 3010 3018 3024 3030 3037 3045 3051 3056 3061 3066 3072 3078 3082 3085 3088 3091 3094 3098 3100 3103 3106 3108 3109 3110 3110 3110
2997 2992 2988 2983 2977 2971 2968 2964 2966 2967 2969 2972 2977 2981 2986 2990 2994 3000 3005 3010 3017 3023 3031 3038 3045 3050 3055 3060 3066 3071 3074 3077 3079 3082 3086 3088 3092 3094 3096 3097 3098 3098 3098
2997 2993 2988 2984 2978 2973 2967 2965 2961 2963 2965 2966 2969 2971 2976 2980 2985 2990 2994 2999 3004 3008 3013 3025 3032 3038 3044 3050 3054 3059 3062 3064 3067 3069 3073 3075 3079 3082 3083 3085 3085 3084 3086
2998 2995 2991 2985 2978 2975 2972 2966 2961 2959 2957 2959 2962 2964 2965 2968 2972 2978 2983 2988 2992 2996 3001 3007 3017 3025 3031 3036 3041 3046 3049 3052 3054 3057 3060 3063 3066 3069 3071 3072 3071 3071 3074
2995 2992 2988 2984 2980 2976 2971 2968 2964 2956 2953 2953 2953 2954 2956 2958 2961 2966 2971 2977 2982 2987 2993 3001 3005 3012 3019 3023 3027 3032 3035 3039 3042 3043 3046 3051 3055 3057 3060 3060 3057 3060 3062
2993 2991 2987 2983 2979 2976 2972 2967 2964 2959 2955 2950 2949 2945 2948 2949 2953 2956 2959 2964 2969 2975 2981 2988 2993 2998 3004 3008 3013 3016 3021 3025 3027 3029 3032 3038 3042 3044 3046 3046 3045 3045 3048
2991 2987 2985 2981 2978 2974 2970 2965 2962 2960 2956 2952 2946 2942 2941 2942 2945 2948 2950 2953 2957 2962 2967 2972 2977 2983 2989 2993 2996 3000 3005 3010 3012 3015 3019 3023 3026 3028 3030 3031 3031 3033 3034
2987 2985 2981 2978 2974 2970 2967 2963 2959 2956 2954 2950 2946 2944 2938 2934 2935 2937 2940 2942 2945 2948 2953 2958 2963 2968 2973 2976 2980 2984 2989 2993 2996 2999 3003 3007 3010 3012 3015 3016 3017 3020 3022
2983 2980 2977 2973 2970 2967 2963 2960 2957 2953 2949 2946 2944 2938 2936 2933 2930 2929 2930 2932 2935 2937 2940 2944 2948 2953 2957 2961 2964 2968 2973 2977 2981 2985 2987 2990 2993 2996 2998 3000 3002 3006 3008
2978 2975 2972 2969 2966 2963 2960 2957 2954 2950 2946 2943 2940 2938 2934 2931 2929 2928 2928 2925 2926 2926 2929 2932 2936 2939 2942 2945 2949 2953 2957 2962 2966 2969 2971 2974 2977 2980 2983 2985 2987 2990 2994